User: anonymous   Login
Location: Oronoko Observatory
(41.9167°N, 86.3833°W)
Time: 18:45:31
(UTC-05:00)
Language:

PAYLOAD A - Orbit

View from above orbital plane
View from above orbital plane
View from above satellite
View from above satellite

Ground track
Ground track

The orbit data is extracted from the following two-line orbital elements,

1 27840U 03031A   16337.92613221 -.00000021 +00000-0 +70961-5 0  9996
2 27840 098.1986 337.9783 0098090 351.4524 008.4990 14.38870146704995
Epoch (UTC): 02 December 2016 22:13:37
Eccentricity: 0.0098090
inclination: 98.1986°
perigee height: 692 km
apogee height: 832 km
right ascension of ascending node: 337.9783°
argument of perigee: 351.4524°
revolutions per day: 14.38870146
mean anomaly at epoch: 8.4990°
orbit number at epoch: 70499

The dashed part of the orbit path shows where the satellite is in the earth's shadow,  

DLR